Location: Gellin
(53.4498°N, 14.3207°E)
Time: 02:05:18
(UTC+00:00)

Cosmos 2366 rocket - Pass Details

Date: 03 March 2021
Orbit: 955 x 997 km, 82.9° (Epoch: 11 April)

Event Time Altitude Azimuth Distance (km) Brightness Sun altitude
Rises 18:22:48 0° 168° (SSE) 3,687 6.8 -15.4°
Reaches altitude 10° 18:25:22 10° 162° (SSE) 2,748 6.1 -15.7°
Maximum altitude 18:31:23 49° 90° (E) 1,274 4.2 -16.6°
Drops below altitude 10° 18:37:28 10° 19° (NNE) 2,779 6.3 -17.5°
Sets 18:40:05 0° 14° (NNE) 3,733 7.1 -17.9°
